Tracking 19176 objects as of 26-May-2018
HD Live streaming from Space Station
objects crossing your sky now

VANGUARD R/B

Track VANGUARD R/B now!
10-day predictions


NORAD ID: 12
Int'l Code: 1959-001B
Perigee: 560.8 km
Apogee: 3,334.7 km
Inclination: 32.9 °
Period: 125.8 minutes
Semi major axis: 8318 km
RCS: 0.5381 m2 (medium)
Launch date: February 17, 1959
Source: United States (US)
Launch site: AIR FORCE EASTERN TEST RANGE (AFETR)

Note: This is a ROCKET BODY
aabbcc
Your satellite tracking list
Your tracking list is empty




NASA's NSSDC Master Catalog

Two Line Element Set (TLE):
1    12U 59001B   18145.29581062 +.00000216 +00000-0 +13420-3 0  9992
2    12 032.8978 109.4010 1667278 071.2349 306.1327 11.44231703193573
Source of the keplerian elements: AFSPC